TimeEDT,TemperatureF,Dew PointF,Humidity,Sea Level PressureIn,VisibilityMPH,Wind Direction,Wind SpeedMPH,Gust SpeedMPH,PrecipitationIn,Events,Conditions,WindDirDegrees,DateUTC
12:53 AM,-9999,-9999,N/A,30.10,-9999.0,North,-9999.0,-,N/A,,Unknown,0,2012-11-03 04:53:00
1:53 AM,-9999,-9999,N/A,30.11,-9999.0,North,-9999.0,-,N/A,,Unknown,0,2012-11-03 05:53:00
2:53 AM,-9999,-9999,N/A,30.12,-9999.0,North,-9999.0,-,N/A,,Unknown,0,2012-11-03 06:53:00
3:53 AM,-9999,-9999,N/A,30.13,-9999.0,North,-9999.0,-,N/A,,Unknown,0,2012-11-03 07:53:00
4:53 AM,-9999,-9999,N/A,30.13,-9999.0,North,-9999.0,-,N/A,,Unknown,0,2012-11-03 08:53:00
5:53 AM,-9999,-9999,N/A,30.15,-9999.0,North,-9999.0,-,N/A,,Unknown,0,2012-11-03 09:53:00
6:53 AM,-9999,-9999,N/A,30.15,-9999.0,North,-9999.0,-,N/A,,Unknown,0,2012-11-03 10:53:00
7:53 AM,-9999,-9999,N/A,30.16,-9999.0,North,-9999.0,-,N/A,,Unknown,0,2012-11-03 11:53:00
8:53 AM,-9999,-9999,N/A,30.18,-9999.0,North,-9999.0,-,N/A,,Unknown,0,2012-11-03 12:53:00
9:53 AM,-9999,-9999,N/A,30.20,-9999.0,North,-9999.0,-,N/A,,Unknown,0,2012-11-03 13:53:00
10:53 AM,-9999,-9999,N/A,30.20,-9999.0,North,-9999.0,-,N/A,,Unknown,0,2012-11-03 14:53:00
11:53 AM,-9999,-9999,N/A,30.20,-9999.0,North,-9999.0,-,N/A,,Unknown,0,2012-11-03 15:53:00
12:53 PM,-9999,-9999,N/A,30.19,-9999.0,North,-9999.0,-,N/A,,Unknown,0,2012-11-03 16:53:00
1:53 PM,-9999,-9999,N/A,30.16,-9999.0,North,-9999.0,-,N/A,,Unknown,0,2012-11-03 17:53:00
2:53 PM,-9999,-9999,N/A,30.15,-9999.0,North,-9999.0,-,N/A,,Unknown,0,2012-11-03 18:53:00
3:53 PM,-9999,-9999,N/A,30.14,-9999.0,North,-9999.0,-,N/A,,Unknown,0,2012-11-03 19:53:00
4:53 PM,-9999,-9999,N/A,30.14,-9999.0,North,-9999.0,-,N/A,,Unknown,0,2012-11-03 20:53:00
5:53 PM,-9999,-9999,N/A,30.14,-9999.0,North,-9999.0,-,N/A,,Unknown,0,2012-11-03 21:53:00
6:53 PM,-9999,-9999,N/A,30.15,-9999.0,North,-9999.0,-,N/A,,Unknown,0,2012-11-03 22:53:00
7:53 PM,-9999,-9999,N/A,30.16,-9999.0,North,-9999.0,-,N/A,,Unknown,0,2012-11-03 23:53:00
8:53 PM,-9999,-9999,N/A,30.16,-9999.0,North,-9999.0,-,N/A,,Unknown,0,2012-11-04 00:53:00
9:53 PM,-9999,-9999,N/A,30.16,-9999.0,North,-9999.0,-,N/A,,Unknown,0,2012-11-04 01:53:00
10:53 PM,-9999,-9999,N/A,30.18,-9999.0,North,-9999.0,-,N/A,,Unknown,0,2012-11-04 02:53:00
11:53 PM,-9999,-9999,N/A,30.18,-9999.0,North,-9999.0,-,N/A,,Unknown,0,2012-11-04 03:53:00